Content
SEND FEEDBACK

Daily
Averages
Monthly
Summary
United States of America

HANNA, MISSOURI


Home > North America > United States > Missouri
Elevation: 1159 feet     Latitude: 37 44N     Longitude: 092 08W

WEATHER
 
SELECT A DAY
Number of Records: 166,126;   Date Range: 1/1/95 - 7/26/14
 
SHARE

PRINT THIS DATA

[ ← Previous Day ]
WEATHER ALMANAC - JANUARY 7, 2013
[ Next Day → ]
[ °C ]   °F
Weather ElementAverageHighLow
Temperature34.3 °F49.6 °F (1:55 pm)18.7 °F (3:55 am)
Dewpoint21.2 °F24.3 °F (8:55 pm)16.2 °F (3:55 am)
Humidity62.7 %90 % (3:55 am)33 % (1:55 pm)
Barometer30.27 in30.38 in (1:55 am)30.14 in (11:55 pm)
Wind Speed7.5 mph12.7 mph (10:55 am)
Wind Gust17.3 mph (10:55 am)
Weather ElementAverage
Visibility10 mi
Wind DirectionSSE (154.8 °)

Weather ElementTotal
Precipitation---
Heating Degree Days30.9 (Base 65)
Averaged from 23 records on January 7, 2013
WEATHER CONDITIONS BREAKOUT
WIND DIRECTION BREAKOUT
WEATHER BY HOUR - JANUARY 7, 2013
[ °C ]   °F
Local TimeTemperatureDewpointHumidityBarometerVisibilityWind DirectionWind SpeedGust SpeedPrecipitationEventsConditions
1:55 AM20.5 °F17.2 °F87 %30.38 in10.0 miSSE (160°)4.6 mphClear
2:55 AM21.0 °F17.4 °F86 %30.38 in10.0 miSSE (150°)6.9 mphClear
3:55 AM18.7 °F16.2 °F90 %30.37 in10.0 miSE (140°)6.9 mphClear
4:55 AM20.1 °F17.4 °F89 %30.34 in10.0 miSE (130°)11.5 mphClear
5:55 AM19.4 °F16.5 °F89 %30.35 in10.0 miSSE (150°)5.8 mphClear
6:55 AM20.5 °F17.2 °F87 %30.35 in10.0 miSE (130°)10.4 mphClear
7:55 AM22.8 °F18.1 °F82 %30.37 in10.0 miSSE (160°)9.2 mphClear
8:55 AM30.6 °F22.3 °F71 %30.37 in10.0 miSSE (150°)6.9 mphClear
9:55 AM36.7 °F23.4 °F59 %30.37 in10.0 miSouth (170°)6.9 mphClear
10:55 AM42.3 °F22.1 °F45 %30.33 in10.0 miSouth (180°)12.7 mph17.3 mphClear
11:55 AM46.2 °F22.1 °F39 %30.28 in10.0 miVariable6.9 mphClear
12:55 PM48.4 °F21.4 °F35 %30.25 in10.0 miSouth (180°)8.1 mphClear
1:55 PM49.6 °F21.7 °F33 %30.22 in10.0 miSouth (190°)8.1 mphClear
2:55 PM48.2 °F22.5 °F36 %30.22 in10.0 miSouth (180°)8.1 mphClear
3:55 PM47.3 °F21.7 °F36 %30.22 in10.0 miSouth (190°)3.5 mphClear
4:55 PM45.1 °F24.1 °F44 %30.21 in10.0 miSouth (170°)6.9 mphClear
5:55 PM41.2 °F23.5 °F50 %30.21 in10.0 miSouth (170°)5.8 mphClear
6:55 PM37.2 °F23.2 °F57 %30.19 in10.0 miSSE (160°)6.9 mphPartly Cloudy
7:55 PM35.1 °F23.7 °F63 %30.19 in10.0 miSSE (160°)8.1 mphClear
8:55 PM34.5 °F24.3 °F66 %30.18 in10.0 miSSE (150°)8.1 mphClear
9:55 PM34.9 °F23.7 °F64 %30.17 in10.0 miSSE (160°)6.9 mphClear
10:55 PM34.3 °F23.7 °F65 %30.16 in10.0 miSSE (160°)6.9 mphPartly Cloudy
11:55 PM33.3 °F23.9 °F69 %30.14 in10.0 miSouth (170°)6.9 mphClear
Hourly data recorded from KTBN, located miles away from Hanna, Missouri







STORIES FROM OUR PARTNERS